Regional Weather Roundup
Issued by NWS Green Bay, WI

Home | Current Version | Previous Version | Graphics & Text | Print | Product List | Glossary Off
Versions: 1 2 3 4 5 6 7 8 9 10 11 12 13 14 15 16 17 18 19 20 21 22 23 24 25 26 27 28 29 30 31 32 33 34 35 36 37 38 39 40 41 42 43 44 45 46 47 48 49 50

000
ASUS43 KGRB 162300
RWRGRB

NORTH-CENTRAL AND NORTHEAST WISCONSIN REGIONAL WEATHER ROUNDUP
NATIONAL WEATHER SERVICE GREEN BAY WI
600 PM CDT MON OCT 16 2017

WIZ005-009-010>012-018-019-170000-
NORTH CENTRAL WISCONSIN

CITY           SKY/WX    TMP DP  RH WIND       PRES   REMARKS
IRONWOOD       CLOUDY    55  33  43 S8        30.00F
MANITOWISH WTR NOT AVBL
ARBOR VITAE    NOT AVBL
EAGLE RIVER    NOT AVBL
LAND O LAKES   NOT AVBL
RHINELANDER    CLEAR     52  34  50 SW6       30.07F
PHILLIPS       NOT AVBL
ANTIGO         NOT AVBL
TOMAHAWK       NOT AVBL
MERRILL        NOT AVBL
$$

WIZ013-073-170000-
NORTHEAST WISCONSIN

CITY           SKY/WX    TMP DP  RH WIND       PRES   REMARKS
IRON MOUNTAIN  PTCLDY    54  34  46 SW9       30.05F
MARINETTE      CLOUDY    53  38  56 SW7       30.11F
$$

WIZ017-030-035>037-045-170000-
CENTRAL WISCONSIN

CITY           SKY/WX    TMP DP  RH WIND       PRES   REMARKS
MEDFORD        NOT AVBL
WAUSAU         CLEAR     54  36  50 SW8       30.08F
MOSINEE        NOT AVBL
MARSHFIELD     CLEAR     53  34  48 SW8       30.09F
WISC RAPIDS    CLEAR     54  38  54 SW6       30.13F
STEVENS POINT  NOT AVBL
WAUPACA        NOT AVBL
SHAWANO        NOT AVBL
CLINTONVILLE   NOT AVBL
WAUTOMA        CLEAR     56  37  49 SW6       30.14F
$$

WIZ038-039-048-051-170000-
FOX VALLEY

CITY           SKY/WX    TMP DP  RH WIND       PRES   REMARKS
NWS GREEN BAY  CLEAR     55  41  59 S6        30.13F
APPLETON       PTCLDY    55  34  44 SW7       30.13F
OSHKOSH        CLEAR     56  36  47 SW6       30.14F
FOND DU LAC    CLEAR     56  34  43 SW6       30.16F
$$

WIZ022-050-052-170000-
EAST CENTRAL WISCONSIN

CITY           SKY/WX    TMP DP  RH WIND       PRES   REMARKS
EPHRAIM        NOT AVBL
WASHINGTON ISL NOT AVBL
STURGEON BAY   CLEAR     53  38  56 S7        30.13F
MANITOWOC      CLEAR     56  36  47 SW3       30.17R
SHEBOYGAN      CLEAR     53  38  56 SW7       30.17S
$$

LMZ563-521-522-541>543-170000-
LAKESHORE

STATION/POSITION TIME  TEMP    WIND        PRES    VSBY  WAVE
                       AIR SEA DIR/SP/G                  HT/PER
                 (UTC) (F)     (DEG/KT/KT) (MB)    (MI)  (FT/S)
SHEBOYGAN LKSHOR 2200   55     170/ 15/ 16 1021.5F
KEWAUNEE LKSHORE 2230   57     220/  5/  8 1020.3S
NORTHPORT PIER   2240   55     180/  3/  9 1019.3F
N MID LAKE BUOY  2150   55 60  220/ 16/ 19 1021.1F         3/ 4
S GREEN BAY BUOY 2230   58 58  230/ 12/ 14 1020.1F
SISTER BAY LKSHO 2219   56     210/ 13/ 15   N/A
MENOMINEE LKSHOR 2224   56     200/  6/  9 1019.3
$$




USA.gov is the U.S. government's official web portal to all federal, state and local government web resources and services.